Home > Weather > Mumbai > Past weeks

Flag for India Weather for the Past 2 Weeks in Mumbai, Maharashtra, India

Now
81 °F

Passing clouds.


Feels Like: 81 °F
Forecast: 72 / 80 °F
Wind: 6 mph from Northwest

Location: Mumbai / Santacruz

Current Time: Feb 12, 2016 at 12:26:15 PM

Latest Report: Feb 12, 2016 at 12:00 PM


Visibility: 3 mi

Pressure: 29.95 "Hg

Humidity: 51%

Dew point: 61 °F

Location of MumbaiLocation

Historic Weather in Mumbai — Graph

°F

Mumbai Temperature Yesterday

Maximum temperature yesterday: 81 °F (at 10:30 AM)
Minimum temperature yesterday: 73 °F (at 4:30 AM)
Average temperature yesterday: 77 °F

High & Low Weather Summary for the Past Weeks

 TemperatureHumidityPressure
High91 °F (Jan 28, 4:00 PM)88% (Feb 6, 4:30 AM)30.04 "Hg (Feb 6, 4:30 AM)
Low68 °F (Feb 8, 4:00 AM)24% (Jan 28, 12:30 PM)29.80 "Hg (Feb 6, 4:30 AM)
Average79 °F59%29.92 "Hg
* Reported Jan 28 10:30 AM — Feb 12 11:00 AM, Mumbai, Weather by CustomWeather, © 2016

Note: Actual official high and low records may vary slightly from our data, if they occured in-between our weather recording intervals... More about our weather records

Advertising

Mumbai Weather History for the Previous 24 Hours

 ConditionsComfort  
Time TempWeatherWind HumidityBarometerVisibility
11:00 AM
Fri, Feb 12
81 °FScattered clouds.9 mph51%29.98 "Hg3 mi
10:30 AM77 °FScattered clouds.7 mph61%29.98 "Hg2 mi
10:00 AM77 °FScattered clouds.5 mph65%29.98 "Hg2 mi
9:30 AM75 °FHaze.7 mph69%29.98 "Hg2 mi
9:00 AM73 °FHaze.7 mph74%29.95 "Hg2 mi
8:30 AM72 °FHaze.8 mph78%29.95 "Hg1 mi
8:00 AM72 °FFog.3 mph78%29.92 "Hg1 mi
7:30 AM70 °FFog.5 mph83%29.92 "Hg1 mi
7:00 AM70 °FFog.3 mph83%29.92 "Hg1 mi
6:30 AM70 °FFog.3 mph83%29.92 "Hg1 mi
6:00 AM70 °FFog.5 mph83%29.89 "Hg1 mi
5:30 AM70 °FFog.5 mph83%29.89 "Hg1 mi
5:00 AM70 °FFog.5 mph88%29.89 "Hg1 mi
4:30 AM70 °FFog.No wind88%29.89 "Hg1 mi
3:30 AM72 °FFog.3 mph83%29.89 "Hg1 mi
3:00 AM72 °FHaze.3 mph83%29.89 "Hg2 mi
2:30 AM73 °FHaze.5 mph78%29.89 "Hg2 mi
2:00 AM73 °FHaze.5 mph78%29.92 "Hg2 mi
1:30 AM73 °FHaze.3 mph78%29.92 "Hg2 mi
1:00 AM73 °FHaze.3 mph78%29.92 "Hg2 mi
12:30 AM73 °FHaze.5 mph78%29.92 "Hg2 mi
12:00 AM73 °FHaze.No wind78%29.92 "Hg2 mi
11:30 PM
Thu, Feb 11
73 °FHaze.No wind78%29.92 "Hg2 mi
11:00 PM75 °FHaze.3 mph74%29.92 "Hg3 mi
10:30 PM75 °FHaze.5 mph69%29.92 "Hg3 mi
10:00 PM75 °FHaze.5 mph69%29.92 "Hg3 mi
9:30 PM75 °FHaze.6 mph69%29.92 "Hg3 mi
9:00 PM75 °FHaze.7 mph69%29.92 "Hg3 mi
8:30 PM75 °FHaze.5 mph69%29.92 "Hg3 mi
8:00 PM77 °FHaze.5 mph69%29.92 "Hg3 mi
7:30 PM77 °FHaze.7 mph69%29.92 "Hg3 mi
7:00 PM77 °FHaze.8 mph69%29.89 "Hg3 mi
6:30 PM77 °FHaze.9 mph65%29.89 "Hg3 mi
6:00 PM77 °FPassing clouds.12 mph65%29.89 "Hg4 mi
5:30 PM79 °FPassing clouds.10 mph61%29.86 "Hg4 mi
5:00 PM79 °FHaze.8 mph65%29.86 "Hg3 mi
4:30 PM79 °FHaze.12 mph61%29.86 "Hg3 mi
4:00 PM79 °FHaze.12 mph61%29.86 "Hg3 mi
3:30 PM79 °FClear.13 mph54%29.86 "Hg3 mi
3:00 PM79 °FPassing clouds.12 mph54%29.89 "Hg2 mi
2:30 PM79 °FPassing clouds.13 mph61%29.89 "Hg3 mi
2:00 PM79 °FPassing clouds.10 mph65%29.89 "Hg3 mi
1:30 PM81 °FPassing clouds.13 mph62%29.89 "Hg3 mi
1:00 PM81 °FPassing clouds.13 mph62%29.92 "Hg3 mi
12:30 PM81 °FClear.10 mph54%29.92 "Hg3 mi
12:00 PM79 °FClear.12 mph58%29.95 "Hg2 mi
Weather by CustomWeather, © 2016

See weather overviewHow to use our weather pages